When you browse on this site, cookies collect data to enhance your experience and personalize the content and advertising you see.
Visit our Privacy Policy to learn more. By continuing to use the site, you agree to this use of cookies and data.
  • In Romania
  • List of Countries
  • For 7 days
  • Water Temperature
  • Weather Map
  • Weather Widgets
  • user-avatar
    Login

    Hourly Weather Lankaran

    Today, 18 October, Friday

    Time Temperature Precipitation Wind Pressure Humidity
    00:00 +10°C° 0 mm 0 mps 637 mmHg 75%
    01:00 +10°C° 0 mm 0 mps 636 mmHg 75%
    02:00 +10°C° 0 mm 0 mps 636 mmHg 75%
    03:00 +9°C° 0 mm 0 mps 636 mmHg 74%
    04:00 +9°C° 0 mm 0 mps 636 mmHg 75%
    05:00 +9°C° 0 mm 0 mps 636 mmHg 75%
    06:00 +9°C° 0 mm 0 mps 636 mmHg 75%
    07:00 +10°C° 0 mm 0 mps 636 mmHg 69%
    08:00 +13°C° 0 mm 1 mps 637 mmHg 62%
    09:00 +15°C° 0 mm 1 mps 638 mmHg 55%
    10:00 +16°C° 0 mm 1 mps 638 mmHg 54%
    11:00 +18°C° 0 mm 1 mps 638 mmHg 52%
    12:00 +18°C° 0 mm 2 mps 638 mmHg 50%
    13:00 +18°C° 0 mm 2 mps 637 mmHg 53%
    14:00 +18°C° 0 mm 2 mps 637 mmHg 56%
    15:00 +18°C° 0 mm 2 mps 636 mmHg 59%
    16:00 +16°C° 0 mm 2 mps 636 mmHg 64%
    17:00 +15°C° 0 mm 1 mps 636 mmHg 68%
    18:00 +14°C° 0 mm 1 mps 635 mmHg 72%
    19:00 +13°C° 0 mm 0 mps 635 mmHg 72%
    20:00 +12°C° 0 mm 0 mps 635 mmHg 71%
    21:00 +12°C° 0 mm 0 mps 635 mmHg 70%
    22:00 +12°C° 0 mm 0 mps 635 mmHg 68%
    23:00 +11°C° 0 mm 0 mps 635 mmHg 67%

    Tomorrow, 19 October, Saturday

    Time Temperature Precipitation Wind Pressure Humidity
    00:00 +12°C° 0 mm 1 mps 635 mmHg 66%
    01:00 +11°C° 0 mm 0 mps 634 mmHg 67%
    02:00 +11°C° 0 mm 0 mps 634 mmHg 67%
    03:00 +10°C° 0 mm 0 mps 634 mmHg 68%
    04:00 +10°C° 0 mm 0 mps 634 mmHg 69%
    05:00 +10°C° 0 mm 0 mps 634 mmHg 69%
    06:00 +10°C° 0 mm 0 mps 635 mmHg 69%
    07:00 +12°C° 0 mm 0 mps 635 mmHg 63%
    08:00 +15°C° 0 mm 1 mps 636 mmHg 57%
    09:00 +16°C° 0 mm 1 mps 637 mmHg 50%
    10:00 +18°C° 0 mm 1 mps 637 mmHg 50%
    11:00 +18°C° 0 mm 2 mps 637 mmHg 50%
    12:00 +19°C° 0 mm 2 mps 638 mmHg 50%
    13:00 +18°C° 0 mm 2 mps 637 mmHg 54%
    14:00 +18°C° 0 mm 2 mps 637 mmHg 57%
    15:00 +17°C° 0 mm 2 mps 636 mmHg 61%
    16:00 +16°C° 0 mm 2 mps 636 mmHg 67%
    17:00 +15°C° 0 mm 1 mps 636 mmHg 72%
    18:00 +13°C° 0 mm 1 mps 635 mmHg 78%
    19:00 +13°C° 0 mm 1 mps 636 mmHg 78%
    20:00 +13°C° 0 mm 1 mps 636 mmHg 77%
    21:00 +12°C° 0 mm 0 mps 636 mmHg 77%
    22:00 +11°C° 0 mm 0 mps 636 mmHg 78%
    23:00 +11°C° 0 mm 0 mps 636 mmHg 78%

    Day after tomorrow, 20 October, Sunday

    Time Temperature Precipitation Wind Pressure Humidity
    00:00 +11°C° 0 mm 0 mps 636 mmHg 79%
    01:00 +10°C° 0 mm 0 mps 636 mmHg 80%
    02:00 +10°C° 0 mm 0 mps 636 mmHg 82%
    03:00 +10°C° 0 mm 0 mps 635 mmHg 83%
    04:00 +9°C° 0 mm 0 mps 636 mmHg 84%
    05:00 +9°C° 0 mm 0 mps 636 mmHg 86%
    06:00 +9°C° 0 mm 0 mps 636 mmHg 87%
    07:00 +11°C° 0 mm 1 mps 637 mmHg 82%
    08:00 +12°C° 0 mm 1 mps 637 mmHg 76%
    09:00 +14°C° 0 mm 2 mps 638 mmHg 71%
    10:00 +14°C° 0 mm 2 mps 638 mmHg 68%
    11:00 +15°C° 0 mm 2 mps 638 mmHg 64%
    12:00 +16°C° 0 mm 3 mps 638 mmHg 61%
    13:00 +14°C° 0.1 mm 3 mps 638 mmHg 65%
    14:00 +14°C° 0.1 mm 3 mps 637 mmHg 68%
    15:00 +13°C° 0.1 mm 3 mps 637 mmHg 71%
    16:00 +13°C° 0.1 mm 2 mps 637 mmHg 76%
    17:00 +12°C° 0.1 mm 2 mps 637 mmHg 82%
    18:00 +11°C° 0.1 mm 1 mps 637 mmHg 87%
    19:00 +10°C° 0 mm 1 mps 637 mmHg 79%
    20:00 +10°C° 0 mm 1 mps 637 mmHg 71%
    21:00 +9°C° 0 mm 0 mps 637 mmHg 63%
    22:00 +9°C° 0 mm 0 mps 637 mmHg 60%
    23:00 +8°C° 0 mm 0 mps 637 mmHg 57%

    21 October, Monday

    Time Temperature Precipitation Wind Pressure Humidity
    00:00 +8°C° 0 mm 0 mps 637 mmHg 54%
    01:00 +8°C° 0 mm 0 mps 636 mmHg 53%
    02:00 +8°C° 0 mm 1 mps 636 mmHg 53%
    03:00 +8°C° 0 mm 1 mps 636 mmHg 52%
    04:00 +8°C° 0 mm 1 mps 636 mmHg 53%
    05:00 +8°C° 0 mm 1 mps 636 mmHg 55%
    06:00 +7°C° 0 mm 1 mps 636 mmHg 56%
    07:00 +9°C° 0 mm 1 mps 637 mmHg 53%
    08:00 +11°C° 0 mm 1 mps 638 mmHg 50%
    09:00 +12°C° 0 mm 1 mps 639 mmHg 46%
    10:00 +13°C° 0 mm 2 mps 639 mmHg 47%
    11:00 +14°C° 0 mm 2 mps 638 mmHg 47%
    12:00 +14°C° 0 mm 3 mps 638 mmHg 47%
    13:00 +13°C° 0 mm 3 mps 638 mmHg 52%
    14:00 +13°C° 0 mm 3 mps 638 mmHg 57%
    15:00 +12°C° 0 mm 3 mps 637 mmHg 62%
    16:00 +12°C° 0 mm 2 mps 637 mmHg 67%
    17:00 +10°C° 0 mm 2 mps 637 mmHg 73%
    18:00 +10°C° 0 mm 1 mps 636 mmHg 79%
    19:00 +9°C° 0 mm 1 mps 636 mmHg 72%
    20:00 +9°C° 0 mm 1 mps 636 mmHg 66%
    21:00 +9°C° 0 mm 1 mps 636 mmHg 59%
    22:00 +9°C° 0 mm 1 mps 636 mmHg 57%
    23:00 +9°C° 0 mm 1 mps 636 mmHg 55%

    22 October, Tuesday

    Time Temperature Precipitation Wind Pressure Humidity
    00:00 +8°C° 0 mm 0 mps 636 mmHg 52%
    01:00 +7°C° 0 mm 0 mps 636 mmHg 53%
    02:00 +7°C° 0 mm 0 mps 636 mmHg 53%
    03:00 +7°C° 0 mm 0 mps 636 mmHg 53%
    04:00 +7°C° 0 mm 0 mps 636 mmHg 54%
    05:00 +7°C° 0 mm 0 mps 636 mmHg 55%
    06:00 +6°C° 0 mm 0 mps 636 mmHg 56%
    07:00 +8°C° 0 mm 0 mps 636 mmHg 53%
    08:00 +10°C° 0 mm 1 mps 637 mmHg 50%
    09:00 +12°C° 0 mm 1 mps 638 mmHg 47%
    10:00 +12°C° 0 mm 1 mps 638 mmHg 48%
    11:00 +13°C° 0 mm 2 mps 638 mmHg 48%
    12:00 +14°C° 0 mm 2 mps 638 mmHg 49%
    13:00 +13°C° 0.3 mm 2 mps 638 mmHg 55%
    14:00 +12°C° 0.3 mm 1 mps 637 mmHg 62%
    15:00 +12°C° 0.3 mm 1 mps 636 mmHg 69%
    16:00 +11°C° 0 mm 1 mps 636 mmHg 72%
    17:00 +11°C° 0 mm 1 mps 636 mmHg 75%
    18:00 +10°C° 0 mm 1 mps 636 mmHg 78%
    19:00 +10°C° 0 mm 1 mps 636 mmHg 79%
    20:00 +9°C° 0 mm 0 mps 636 mmHg 80%
    21:00 +8°C° 0 mm 0 mps 636 mmHg 81%
    22:00 +8°C° 0 mm 0 mps 636 mmHg 81%
    23:00 +8°C° 0 mm 0 mps 635 mmHg 81%

    23 October, Wednesday

    Time Temperature Precipitation Wind Pressure Humidity
    00:00 +8°C° 0 mm 0 mps 635 mmHg 81%
    01:00 +7°C° 0 mm 0 mps 635 mmHg 80%
    02:00 +7°C° 0 mm 0 mps 635 mmHg 80%
    03:00 +7°C° 0 mm 0 mps 635 mmHg 80%
    04:00 +7°C° 0 mm 0 mps 635 mmHg 80%
    05:00 +7°C° 0 mm 0 mps 635 mmHg 81%
    06:00 +6°C° 0 mm 0 mps 634 mmHg 81%
    07:00 +8°C° 0 mm 0 mps 635 mmHg 75%
    08:00 +10°C° 0 mm 0 mps 636 mmHg 68%
    09:00 +12°C° 0 mm 1 mps 637 mmHg 62%
    10:00 +13°C° 0 mm 1 mps 637 mmHg 60%
    11:00 +14°C° 0 mm 2 mps 637 mmHg 59%
    12:00 +15°C° 0 mm 2 mps 637 mmHg 57%
    13:00 +15°C° 0 mm 2 mps 637 mmHg 60%
    14:00 +14°C° 0 mm 2 mps 637 mmHg 62%
    15:00 +14°C° 0 mm 2 mps 636 mmHg 65%
    16:00 +13°C° 0 mm 2 mps 636 mmHg 71%
    17:00 +12°C° 0 mm 1 mps 636 mmHg 77%
    18:00 +10°C° 0 mm 1 mps 635 mmHg 83%
    19:00 +10°C° 0 mm 1 mps 635 mmHg 82%
    20:00 +9°C° 0 mm 0 mps 636 mmHg 82%
    21:00 +9°C° 0 mm 0 mps 636 mmHg 81%
    22:00 +8°C° 0 mm 0 mps 636 mmHg 81%
    23:00 +8°C° 0 mm 0 mps 636 mmHg 81%
    Show more